Погода в Стокмаркнесе

Норвегия     68°33′55″N   14°54′16″E
темп.,
°C
ветер,
м/с
пор.,
м/с
влажн.,
%
обл.,
%
осадки,
мм/ч
давл.,
гПа
погр.,
м
20 сентября, пн
пн2023:00+9ююв3367100 0.0 102565
02:00+9ююв4478100 0.0 1025141
05:00+8ююв4578100 0.0 1024175
08:00+8ююв457550 0.0 1024206
11:00+9ююв566315 0.0 1023374
14:00+10ююв45585 0.0 1022466
17:00+10ююв47621 0.0 1021393
20:00+9юв58682 0.0 1019437
21 сентября, вт
вт2123:00+8юв576837 0.0 1018424
02:00+7ююв576622 0.0 1016494
05:00+7ююв610610 0.0 1013932
08:00+7ююв101162100 0.0 10121066
11:00+5ююв71084100 0.3 1012726
14:00+6ююв697796 0.4 1010580
17:00+8ююв61071100 0.2 1009848
20:00+8юв61183100 3.2 1009989
22 сентября, ср
ср2223:00+8ююв71286100 2.6 1008952
02:00+8юв61286100 4.3 1006926
05:00+8ююв91689100 4.8 10011265
08:00+8ююв101890100 12.6 10001174
11:00+10ю112482100 3.4 9981456
14:00+10ююв102287100 8.1 9991475
17:00+10ююз101990100 5.0 9991304
20:00+11ююз11187661 6.6 10001155
23 сентября, чт
чт2323:00+10ююз131976100 0.5 9991243
02:00+10ююз111779100 1.1 9981300
05:00+9ю61476100 0.1 9971314
08:00+9ююв4776100 0.1 995414
11:00+9ююв3482100 0.3 993350
14:00+8юв3490100 2.3 991361
17:00+8юв3485100 0.1 990364
20:00+8ююв4485100 0.1 989252
24 сентября, пт
пт2423:00+8ююв4587100 0.0 988305
02:00+8ююв4487100 0.0 988255
05:00+7ююв4488100 0.0 989255
08:00+7ююв3490100 0.7 989360
11:00+8юв3487100 1.1 990365
14:00+8вюв3480100 1.3 991485
17:00+7вюв3390100 1.2 991288
20:00+7в2289100 2.1 990259